TimeEST,TemperatureF,Dew PointF,Humidity,Sea Level PressureIn,VisibilityMPH,Wind Direction,Wind SpeedMPH,Gust SpeedMPH,PrecipitationIn,Events,Conditions,WindDirDegrees,DateUTC
12:53 AM,28.0,25.0,88,30.30,10.0,Calm,Calm,-,N/A,,Clear,0,2011-12-19 05:53:00
1:53 AM,27.0,24.1,89,30.30,10.0,Calm,Calm,-,N/A,,Clear,0,2011-12-19 06:53:00
3:53 AM,25.0,23.0,92,30.30,10.0,Calm,Calm,-,N/A,,Clear,0,2011-12-19 08:53:00
4:53 AM,24.1,23.0,96,30.30,10.0,Calm,Calm,-,N/A,,Clear,0,2011-12-19 09:53:00
5:53 AM,24.1,21.9,91,30.30,10.0,Calm,Calm,-,N/A,,Clear,0,2011-12-19 10:53:00
6:53 AM,24.1,21.9,91,30.31,10.0,SW,4.6,-,N/A,,Clear,220,2011-12-19 11:53:00
7:53 AM,25.0,21.9,88,30.31,10.0,SSW,6.9,-,N/A,,Clear,210,2011-12-19 12:53:00
8:53 AM,32.0,27.0,82,30.31,10.0,SSW,6.9,-,N/A,,Clear,210,2011-12-19 13:53:00
9:53 AM,37.9,28.9,70,30.32,10.0,SSW,6.9,-,N/A,,Clear,210,2011-12-19 14:53:00
10:53 AM,45.0,28.9,53,30.30,10.0,SW,11.5,-,N/A,,Clear,220,2011-12-19 15:53:00
11:53 AM,51.1,28.0,41,30.26,10.0,SW,16.1,23.0,N/A,,Clear,230,2011-12-19 16:53:00
12:53 PM,55.0,28.0,35,30.21,10.0,SW,13.8,19.6,N/A,,Clear,220,2011-12-19 17:53:00
1:53 PM,55.4,26.6,33,30.20,10.0,SW,16.1,21.9,N/A,,Clear,230,2011-12-19 18:53:00
2:53 PM,55.0,26.1,33,30.18,10.0,SW,15.0,-,N/A,,Clear,220,2011-12-19 19:53:00
3:53 PM,55.0,28.0,35,30.19,10.0,SW,15.0,-,N/A,,Clear,230,2011-12-19 20:53:00
4:53 PM,52.0,28.9,41,30.18,10.0,SW,6.9,-,N/A,,Clear,220,2011-12-19 21:53:00
5:53 PM,52.0,28.9,41,30.19,10.0,SW,8.1,-,N/A,,Overcast,230,2011-12-19 22:53:00
6:53 PM,48.0,28.9,48,30.19,10.0,SSW,5.8,-,N/A,,Clear,210,2011-12-19 23:53:00
7:53 PM,46.0,28.9,51,30.19,10.0,SSW,6.9,-,N/A,,Clear,210,2011-12-20 00:53:00
8:53 PM,43.0,28.9,58,30.18,10.0,SW,4.6,-,N/A,,Clear,220,2011-12-20 01:53:00
9:53 PM,44.1,28.9,55,30.18,10.0,SW,9.2,-,N/A,,Clear,220,2011-12-20 02:53:00
10:53 PM,41.0,28.9,62,30.18,10.0,WSW,3.5,-,N/A,,Clear,240,2011-12-20 03:53:00
11:53 PM,39.0,28.9,67,30.17,10.0,SW,4.6,-,N/A,,Clear,230,2011-12-20 04:53:00